SCP
8 7 6 3 4 4 4 3 3 2 1 1 2 2 2 1 0 1 1 0 0 0 0 0 0 0 0 0 0 0 0 0 0 0 0 0 0 0
7 4 4 5 4 4 4 3 2 1 1 1 2 2 2 1 0 1 0 0 0 0 0 0 0 0 0 0 0 0 0 0 0 0 0 0 0 0
4 3 4 5 3 4 4 3 2 1 1 1 2 2 1 1 1 0 0 0 0 0 0 0 0 0 0 0 0 -0 0 0 0 0 0 0 0 0
3 3 3 3 2 3 3 2 1 1 1 1 2 1 1 1 0 0 0 0 0 0 0 0 0 0 0 0 0 0 0 0 0 0 0 0 -0 0
2 3 3 3 3 3 4 2 1 1 1 1 1 1 0 0 0 0 0 0 0 0 0 0 0 0 0 0 0 0 0 0 0 0 0 0 -0 -0
3 2 2 3 3 3 3 1 2 1 2 2 1 0 0 0 0 0 0 0 0 0 0 0 0 0 0 0 0 0 0 0 0 0 0 0 0 -0
2 2 4 3 2 3 2 1 1 1 1 2 1 1 0 0 0 0 0 0 0 0 0 0 0 0 0 0 0 0 0 0 0 0 0 -0 0 -0
2 4 3 1 1 1 0 0 1 1 1 1 1 0 0 0 0 0 0 0 0 0 0 0 0 0 0 0 0 -0 -0 0 0 0 0 -0 -0 0
4 4 2 2 0 0 0 0 0 0 1 1 0 0 0 0 0 0 0 0 0 0 0 0 0 0 0 0 0 -0 -0 0 -0 0 -0 0 -0 0
3 2 2 1 1 1 0 1 1 0 0 0 0 0 0 0 0 0 0 0 0 0 0 0 0 0 0 0 0 0 -0 0 0 -0 0 -0 0 0
3 2 1 1 0 0 1 0 0 0 0 0 0 0 0 0 0 0 0 0 0 0 0 0 0 0 0 0 0 0 0 0 0 0 0 0 0 0
2 0 0 0 0 0 1 1 1 0 0 0 0 0 0 0 0 0 0 0 0 0 0 0 0 0 0 0 0 0 -0 -0 0 -0 0 0 0 0
1 1 0 0 0 0 0 1 0 0 0 0 0 0 0 0 0 0 0 0 0 0 0 0 0 0 0 0 0 0 0 0 0 0 0 0 0 0
1 0 0 0 0 0 0 0 0 0 0 0 0 0 0 0 0 0 0 0 0 0 0 0 0 0 0 0 0 0 0 0 0 0 0 0 0 0
0 0 0 0 0 0 0 0 0 0 0 0 0 0 0 0 0 0 0 0 0 0 0 0 0 0 0 0 0 0 0 0 0 0 0 0 0 0
0 0 0 0 0 0 0 0 0 0 0 0 0 0 0 0 0 0 0 0 0 0 0 0 0 0 0 0 0 0 0 0 0 0 0 0 0 0
0 0 0 0 0 0 0 0 0 0 -0 0 -0 -0 0 0 0 0 0 0 0 0 -0 0 0 0 0 0 0 0 0 0 0 0 0 0 0 0
0 0 0 0 0 0 0 0 0 0 0 0 0 0 0 0 0 0 0 0 0 0 0 0 0 0 0 0 0 0 0 0 0 0 0 0 0 0
0 0 0 0 0 0 0 0 0 -0 0 0 0 0 0 0 0 0 0 0 0 0 0 0 0 0 0 0 0 0 0 0 0 0 0 0 0 0
0 0 0 0 0 0 0 0 0 0 0 0 0 0 0 0 0 0 0 0 0 0 0 0 0 0 0 0 0 0 0 0 0 0 0 0 0 0
0 0 0 0 0 0 0 0 0 0 0 0 0 0 0 0 0 0 0 0 0 0 0 0 0 0 0 0 0 0 0 0 0 0 0 0 0 0
0 0 0 0 0 0 0 0 0 0 0 0 0 0 0 0 0 -0 -0 0 0 0 0 0 0 0 0 0 0 0 0 0 0 0 0 0 0 0
0 0 0 0 0 0 0 0 0 0 0 0 0 0 0 -0 0 0 0 0 0 0 0 0 0 0 0 0 0 0 0 0 0 0 0 0 0 0
Wind_Speed_500mb
86 78 74 55 47 47 52 55 43 37 34 32 39 30 31 29 34 35 34 34 27 24 26 30 32 36 32 33 34 34 35 34 28 24 22 23 22 37
86 78 65 54 51 51 54 52 38 44 30 21 27 31 37 39 36 35 36 35 31 26 23 24 27 27 28 30 34 36 33 31 28 23 16 9 9 21
82 71 57 46 47 47 48 47 38 36 27 10 26 28 28 30 37 37 30 31 30 25 25 27 29 26 29 31 34 35 30 31 29 24 17 8 7 15
75 66 53 41 45 44 43 41 36 30 27 27 26 27 28 34 33 33 27 20 26 24 26 28 28 28 31 34 32 32 29 34 35 32 24 20 15 17
66 61 54 47 46 52 49 42 39 29 35 36 32 31 33 34 25 25 25 17 23 22 26 25 28 33 33 33 31 30 29 35 40 32 27 21 23 21
60 51 52 51 50 48 48 46 36 38 35 35 37 34 28 18 16 12 6 8 11 16 24 24 27 31 32 32 32 30 30 36 41 32 28 25 24 25
58 57 54 46 45 51 43 49 44 38 32 37 38 32 31 20 16 4 9 15 15 12 18 21 25 28 32 36 37 35 37 47 43 38 28 27 31 31
59 60 46 46 47 47 39 39 35 38 40 43 38 35 28 25 16 18 15 18 16 19 18 17 21 27 28 31 35 38 41 49 48 37 32 30 36 34
64 56 50 45 50 46 44 43 40 39 40 39 36 37 34 29 28 25 20 18 13 12 23 22 21 20 25 25 33 34 41 48 47 36 31 31 35 35
52 48 49 42 37 41 45 45 42 42 40 36 35 33 38 26 24 32 23 19 19 15 25 21 23 25 20 23 28 29 39 37 36 34 31 31 35 36
47 51 44 38 35 30 28 26 24 36 32 33 40 33 30 24 21 34 33 28 20 15 29 22 22 20 21 19 24 35 42 38 38 34 33 34 36 37
50 44 37 36 32 30 36 31 32 35 35 37 35 33 29 28 23 28 29 30 22 13 25 31 18 24 14 15 15 32 37 35 36 39 37 37 39 42
51 48 48 40 38 29 29 39 32 33 33 33 35 33 32 30 29 33 34 31 23 14 12 26 17 24 15 11 22 30 36 43 42 45 41 40 42 44
49 43 39 35 37 26 27 35 24 28 29 24 26 30 32 30 23 34 35 32 33 24 14 10 13 15 28 17 14 26 37 42 45 44 43 40 41 43
40 32 24 21 20 24 23 26 28 25 24 26 28 32 27 22 26 38 32 29 31 23 13 13 21 8 18 24 24 23 21 26 43 45 42 39 39 43
41 33 25 19 24 21 17 16 22 24 17 22 17 17 22 20 24 31 34 29 24 24 18 17 21 23 21 23 24 26 23 23 21 33 43 42 44 46
40 35 24 31 32 26 21 21 25 26 22 17 19 18 17 19 21 23 19 24 23 14 10 10 12 23 27 21 17 20 23 27 28 25 28 37 39 44
40 37 33 35 33 33 28 22 18 18 18 21 22 20 20 22 25 22 16 19 21 23 20 13 8 14 13 16 18 18 27 23 23 26 31 40 43 42
33 38 37 35 32 31 27 22 21 17 14 14 17 23 26 26 27 22 18 16 15 16 17 18 19 17 16 22 19 11 18 17 18 25 33 33 24 18
33 35 35 30 33 33 28 24 21 20 19 16 13 13 20 24 25 19 18 18 18 16 12 12 21 26 25 16 9 7 11 14 19 21 15 9 19 26
35 35 37 35 36 31 27 21 18 20 17 15 14 13 15 19 23 21 21 20 16 17 20 23 18 13 11 8 7 5 6 10 15 19 22 24 22 21
30 38 35 37 36 29 24 20 18 15 17 17 18 15 19 24 18 17 17 19 21 19 13 11 16 17 19 19 17 15 22 23 30 32 27 32 23 26
31 41 42 33 29 27 22 21 14 17 15 15 16 12 19 15 10 10 13 12 13 14 7 11 17 15 18 12 16 13 20 26 28 20 17 21 34 39
Wind_Direction_500mb
252 249 241 240 230 240 236 244 250 256 262 279 233 218 221 242 258 260 270 280 279 278 255 242 233 226 230 220 221 222 224 230 232 240 260 280 271 225
249 247 236 241 225 236 241 246 244 247 255 243 221 224 230 246 261 269 270 268 270 266 250 229 216 219 217 216 220 223 224 225 224 234 247 302 302 228
245 239 238 238 215 234 240 242 239 217 241 276 226 231 247 256 269 279 279 261 261 255 238 223 219 223 216 217 220 223 223 226 221 229 230 219 82 170
237 235 236 237 219 227 235 234 236 220 232 254 230 246 257 273 277 287 281 255 249 237 224 216 221 217 217 221 221 226 224 221 218 211 211 194 171 127
235 230 224 231 227 223 227 223 214 218 223 237 256 266 272 282 283 288 279 236 252 234 217 217 217 219 217 220 221 228 225 222 206 209 208 201 214 205
231 227 221 226 227 230 231 216 212 229 232 239 248 256 264 278 279 299 173 171 231 209 206 212 214 213 217 219 222 226 218 214 205 211 211 212 216 211
221 224 224 228 226 232 231 217 219 220 220 231 235 248 252 252 249 251 192 205 202 209 204 208 214 219 221 222 222 215 215 210 208 215 220 227 228 225
214 215 220 219 217 225 224 215 221 219 224 235 241 239 239 259 223 230 231 213 209 200 187 193 221 226 229 227 221 218 204 206 212 221 232 235 232 228
213 217 218 221 225 228 213 217 229 233 236 242 240 234 235 244 219 214 231 222 217 222 189 208 230 236 230 220 214 207 203 213 213 221 223 224 226 231
218 219 216 219 220 218 224 230 232 236 236 239 243 241 232 231 227 212 224 204 220 215 200 214 222 238 237 226 218 218 212 203 214 216 223 227 229 233
211 216 215 203 209 220 217 227 227 234 238 239 241 242 238 231 230 211 206 198 195 209 199 215 230 224 207 228 228 205 209 211 214 219 229 231 232 238
206 201 197 206 213 211 210 219 226 240 240 239 240 229 231 229 225 220 208 198 208 218 216 222 222 205 206 212 209 192 206 213 222 227 233 234 234 239
191 193 197 206 214 225 214 222 227 232 239 233 235 232 226 227 219 206 202 194 199 219 234 216 236 208 206 217 206 217 228 228 230 229 236 240 241 245
193 203 213 219 233 219 215 219 220 226 225 235 224 219 228 226 220 204 204 202 196 202 190 211 239 226 205 214 233 229 228 221 231 238 245 253 253 253
197 196 200 209 218 208 215 224 228 224 229 228 224 221 212 221 212 202 202 210 204 207 214 215 196 203 227 239 232 250 240 237 240 242 246 248 246 257
172 184 196 207 187 187 197 203 190 209 201 179 173 194 216 205 204 206 215 211 209 215 224 228 218 216 225 243 246 245 253 242 257 251 247 254 262 264
185 191 198 180 175 169 163 143 161 170 170 191 176 185 198 191 179 187 198 206 211 223 225 250 268 233 249 248 262 257 261 250 250 265 249 249 255 262
192 190 179 179 182 177 169 162 177 181 185 194 183 183 189 178 180 177 196 217 231 233 230 227 261 268 265 270 283 293 262 268 275 268 265 269 273 277
190 171 174 182 187 182 168 168 159 165 171 171 189 196 194 190 196 211 225 234 224 226 241 227 229 239 261 267 286 282 274 270 284 280 280 270 283 284
169 167 167 173 165 158 156 153 164 165 171 175 181 205 216 212 213 212 208 224 224 228 219 243 256 261 259 272 281 297 314 258 280 284 306 296 277 283
164 166 160 164 154 143 160 167 177 174 179 184 192 191 201 204 193 199 220 219 225 223 230 251 275 250 233 241 316 245 288 291 310 305 290 292 296 297
165 166 162 155 149 158 164 168 169 174 189 196 193 198 193 197 194 202 218 221 242 247 245 248 254 259 256 261 265 272 297 297 298 294 289 288 283 282
150 157 149 144 152 150 150 153 159 167 170 192 188 170 194 204 209 227 232 219 227 245 273 257 249 275 294 274 272 280 294 292 301 281 290 269 264 276
Wind_Speed_850mb
86 78 74 55 47 47 52 55 43 37 34 32 39 30 31 29 34 35 34 34 27 24 26 30 32 36 32 33 34 34 35 34 28 24 22 23 22 37
86 78 65 54 51 51 54 52 38 44 30 21 27 31 37 39 36 35 36 35 31 26 23 24 27 27 28 30 34 36 33 31 28 23 16 9 9 21
82 71 57 46 47 47 48 47 38 36 27 10 26 28 28 30 37 37 30 31 30 25 25 27 29 26 29 31 34 35 30 31 29 24 17 8 7 15
75 66 53 41 45 44 43 41 36 30 27 27 26 27 28 34 33 33 27 20 26 24 26 28 28 28 31 34 32 32 29 34 35 32 24 20 15 17
66 61 54 47 46 52 49 42 39 29 35 36 32 31 33 34 25 25 25 17 23 22 26 25 28 33 33 33 31 30 29 35 40 32 27 21 23 21
60 51 52 51 50 48 48 46 36 38 35 35 37 34 28 18 16 12 6 8 11 16 24 24 27 31 32 32 32 30 30 36 41 32 28 25 24 25
58 57 54 46 45 51 43 49 44 38 32 37 38 32 31 20 16 4 9 15 15 12 18 21 25 28 32 36 37 35 37 47 43 38 28 27 31 31
59 60 46 46 47 47 39 39 35 38 40 43 38 35 28 25 16 18 15 18 16 19 18 17 21 27 28 31 35 38 41 49 48 37 32 30 36 34
64 56 50 45 50 46 44 43 40 39 40 39 36 37 34 29 28 25 20 18 13 12 23 22 21 20 25 25 33 34 41 48 47 36 31 31 35 35
52 48 49 42 37 41 45 45 42 42 40 36 35 33 38 26 24 32 23 19 19 15 25 21 23 25 20 23 28 29 39 37 36 34 31 31 35 36
47 51 44 38 35 30 28 26 24 36 32 33 40 33 30 24 21 34 33 28 20 15 29 22 22 20 21 19 24 35 42 38 38 34 33 34 36 37
50 44 37 36 32 30 36 31 32 35 35 37 35 33 29 28 23 28 29 30 22 13 25 31 18 24 14 15 15 32 37 35 36 39 37 37 39 42
51 48 48 40 38 29 29 39 32 33 33 33 35 33 32 30 29 33 34 31 23 14 12 26 17 24 15 11 22 30 36 43 42 45 41 40 42 44
49 43 39 35 37 26 27 35 24 28 29 24 26 30 32 30 23 34 35 32 33 24 14 10 13 15 28 17 14 26 37 42 45 44 43 40 41 43
40 32 24 21 20 24 23 26 28 25 24 26 28 32 27 22 26 38 32 29 31 23 13 13 21 8 18 24 24 23 21 26 43 45 42 39 39 43
41 33 25 19 24 21 17 16 22 24 17 22 17 17 22 20 24 31 34 29 24 24 18 17 21 23 21 23 24 26 23 23 21 33 43 42 44 46
40 35 24 31 32 26 21 21 25 26 22 17 19 18 17 19 21 23 19 24 23 14 10 10 12 23 27 21 17 20 23 27 28 25 28 37 39 44
40 37 33 35 33 33 28 22 18 18 18 21 22 20 20 22 25 22 16 19 21 23 20 13 8 14 13 16 18 18 27 23 23 26 31 40 43 42
33 38 37 35 32 31 27 22 21 17 14 14 17 23 26 26 27 22 18 16 15 16 17 18 19 17 16 22 19 11 18 17 18 25 33 33 24 18
33 35 35 30 33 33 28 24 21 20 19 16 13 13 20 24 25 19 18 18 18 16 12 12 21 26 25 16 9 7 11 14 19 21 15 9 19 26
35 35 37 35 36 31 27 21 18 20 17 15 14 13 15 19 23 21 21 20 16 17 20 23 18 13 11 8 7 5 6 10 15 19 22 24 22 21
30 38 35 37 36 29 24 20 18 15 17 17 18 15 19 24 18 17 17 19 21 19 13 11 16 17 19 19 17 15 22 23 30 32 27 32 23 26
31 41 42 33 29 27 22 21 14 17 15 15 16 12 19 15 10 10 13 12 13 14 7 11 17 15 18 12 16 13 20 26 28 20 17 21 34 39
Wind_Direction_850mb
252 249 241 240 230 240 236 244 250 256 262 279 233 218 221 242 258 260 270 280 279 278 255 242 233 226 230 220 221 222 224 230 232 240 260 280 271 225
249 247 236 241 225 236 241 246 244 247 255 243 221 224 230 246 261 269 270 268 270 266 250 229 216 219 217 216 220 223 224 225 224 234 247 302 302 228
245 239 238 238 215 234 240 242 239 217 241 276 226 231 247 256 269 279 279 261 261 255 238 223 219 223 216 217 220 223 223 226 221 229 230 219 82 170
237 235 236 237 219 227 235 234 236 220 232 254 230 246 257 273 277 287 281 255 249 237 224 216 221 217 217 221 221 226 224 221 218 211 211 194 171 127
235 230 224 231 227 223 227 223 214 218 223 237 256 266 272 282 283 288 279 236 252 234 217 217 217 219 217 220 221 228 225 222 206 209 208 201 214 205
231 227 221 226 227 230 231 216 212 229 232 239 248 256 264 278 279 299 173 171 231 209 206 212 214 213 217 219 222 226 218 214 205 211 211 212 216 211
221 224 224 228 226 232 231 217 219 220 220 231 235 248 252 252 249 251 192 205 202 209 204 208 214 219 221 222 222 215 215 210 208 215 220 227 228 225
214 215 220 219 217 225 224 215 221 219 224 235 241 239 239 259 223 230 231 213 209 200 187 193 221 226 229 227 221 218 204 206 212 221 232 235 232 228
213 217 218 221 225 228 213 217 229 233 236 242 240 234 235 244 219 214 231 222 217 222 189 208 230 236 230 220 214 207 203 213 213 221 223 224 226 231
218 219 216 219 220 218 224 230 232 236 236 239 243 241 232 231 227 212 224 204 220 215 200 214 222 238 237 226 218 218 212 203 214 216 223 227 229 233
211 216 215 203 209 220 217 227 227 234 238 239 241 242 238 231 230 211 206 198 195 209 199 215 230 224 207 228 228 205 209 211 214 219 229 231 232 238
206 201 197 206 213 211 210 219 226 240 240 239 240 229 231 229 225 220 208 198 208 218 216 222 222 205 206 212 209 192 206 213 222 227 233 234 234 239
191 193 197 206 214 225 214 222 227 232 239 233 235 232 226 227 219 206 202 194 199 219 234 216 236 208 206 217 206 217 228 228 230 229 236 240 241 245
193 203 213 219 233 219 215 219 220 226 225 235 224 219 228 226 220 204 204 202 196 202 190 211 239 226 205 214 233 229 228 221 231 238 245 253 253 253
197 196 200 209 218 208 215 224 228 224 229 228 224 221 212 221 212 202 202 210 204 207 214 215 196 203 227 239 232 250 240 237 240 242 246 248 246 257
172 184 196 207 187 187 197 203 190 209 201 179 173 194 216 205 204 206 215 211 209 215 224 228 218 216 225 243 246 245 253 242 257 251 247 254 262 264
185 191 198 180 175 169 163 143 161 170 170 191 176 185 198 191 179 187 198 206 211 223 225 250 268 233 249 248 262 257 261 250 250 265 249 249 255 262
192 190 179 179 182 177 169 162 177 181 185 194 183 183 189 178 180 177 196 217 231 233 230 227 261 268 265 270 283 293 262 268 275 268 265 269 273 277
190 171 174 182 187 182 168 168 159 165 171 171 189 196 194 190 196 211 225 234 224 226 241 227 229 239 261 267 286 282 274 270 284 280 280 270 283 284
169 167 167 173 165 158 156 153 164 165 171 175 181 205 216 212 213 212 208 224 224 228 219 243 256 261 259 272 281 297 314 258 280 284 306 296 277 283
164 166 160 164 154 143 160 167 177 174 179 184 192 191 201 204 193 199 220 219 225 223 230 251 275 250 233 241 316 245 288 291 310 305 290 292 296 297
165 166 162 155 149 158 164 168 169 174 189 196 193 198 193 197 194 202 218 221 242 247 245 248 254 259 256 261 265 272 297 297 298 294 289 288 283 282
150 157 149 144 152 150 150 153 159 167 170 192 188 170 194 204 209 227 232 219 227 245 273 257 249 275 294 274 272 280 294 292 301 281 290 269 264 276